GW5520 Weather Reports


time (UTC)temp
C
wind
direction
speed
KPH
gust
KPH
rain 1hr
cm
rain 24hr
cm
rain mn
cm
humidity
%
barometer
mb
20260504070222 18 202 8.0 19.3 0.00 0.00 0.00 53
20260504060143 18 211 8.0 14.5 0.00 0.00 0.00 52
20260504050611 18 197 9.7 24.1 0.00 0.00 0.00 51
20260504050108 18 208 11.3 19.3 0.00 0.00 0.00 50
20260504045605 18 228 8.0 17.7 0.00 0.00 0.00 50
20260504045100 18 213 6.4 20.9 0.00 0.00 0.00 50
20260504044558 18 210 17.7 22.5 0.00 0.00 0.00 49
20260504044054 18 203 8.0 17.7 0.00 0.00 0.00 49
20260504043552 18 209 9.7 19.3 0.00 0.00 0.00 49
20260504043049 18 202 8.0 19.3 0.00 0.00 0.00 48
20260504042546 18 215 8.0 22.5 0.00 0.00 0.00 48
20260504042043 18 213 19.3 24.1 0.00 0.00 0.00 47
20260504041538 18 193 11.3 16.1 0.00 0.00 0.00 47
20260504041035 18 239 4.8 17.7 0.00 0.00 0.00 47
20260504040532 18 195 6.4 12.9 0.00 0.00 0.00 46
20260504040029 19 220 14.5 17.7 0.00 0.00 0.00 46
20260504035526 18 211 9.7 12.9 0.00 0.00 0.00 47
20260504035022 19 188 14.5 16.1 0.00 0.00 0.00 46
20260504034520 19 191 9.7 14.5 0.00 0.00 0.00 46
20260504034017 19 203 11.3 17.7 0.00 0.00 0.00 46
20260504033515 19 163 8.0 16.1 0.00 0.00 0.00 46
20260504033012 19 209 9.7 14.5 0.00 0.00 0.00 46
20260504032509 19 180 11.3 12.9 0.00 0.00 0.00 46
20260504032005 19 219 11.3 11.3 0.00 0.00 0.00 46
20260504031502 19 181 8.0 9.7 0.00 0.00 0.00 47
20260504030959 19 201 8.0 11.3 0.00 0.00 0.00 47
20260504030456 19 183 11.3 14.5 0.00 0.00 0.00 48
20260504025952 19 216 3.2 11.3 0.00 0.00 0.00 48
20260504025449 18 183 3.2 9.7 0.00 0.00 0.00 48
20260504024946 18 220 8.0 11.3 0.00 0.00 0.00 48
20260504024443 18 212 3.2 11.3 0.00 0.00 0.00 48
20260504023940 18 195 4.8 8.0 0.00 0.00 0.00 49
20260504023436 18 223 6.4 8.0 0.00 0.00 0.00 48
20260504022932 18 224 3.2 8.0 0.00 0.00 0.00 48
20260504022428 19 198 3.2 11.3 0.00 0.00 0.00 47
20260504021925 19 225 3.2 6.4 0.00 0.00 0.00 48
20260504021422 19 188 6.4 6.4 0.00 0.00 0.00 47
20260504020920 19 197 3.2 4.8 0.00 0.00 0.00 46
20260504020416 19 247 1.6 6.4 0.00 0.00 0.00 46
20260504015913 19 208 3.2 6.4 0.00 0.00 0.00 46
20260504015409 20 208 3.2 6.4 0.00 0.00 0.00 45
20260504014905 20 225 1.6 6.4 0.00 0.00 0.00 45
20260504014401 20 214 3.2 6.4 0.00 0.00 0.00 44
20260504013858 20 225 6.4 8.0 0.00 0.00 0.00 44
20260504013356 20 195 3.2 6.4 0.00 0.00 0.00 44
20260504012853 20 196 4.8 8.0 0.00 0.00 0.00 44
20260504012350 20 192 6.4 8.0 0.00 0.00 0.00 44
20260504011848 20 197 4.8 8.0 0.00 0.00 0.00 44
20260504011344 20 196 4.8 11.3 0.00 0.00 0.00 43
20260504010840 20 203 6.4 9.7 0.00 0.00 0.00 43
20260504010336 20 193 3.2 9.7 0.00 0.00 0.00 44
20260504005833 20 196 6.4 6.4 0.00 0.00 0.00 43
20260504005330 21 197 4.8 6.4 0.00 0.00 0.00 43
20260504004827 21 199 6.4 6.4 0.00 0.00 0.00 42
20260504004325 21 187 4.8 6.4 0.00 0.00 0.00 42
20260504003821 21 198 6.4 6.4 0.00 0.00 0.00 41
20260504003318 22 212 3.2 6.4 0.00 0.00 0.00 41
20260504002814 22 201 6.4 6.4 0.00 0.00 0.00 39
20260504002311 22 188 3.2 6.4 0.00 0.00 0.00 39
20260504001809 23 195 8.0 9.7 0.00 0.00 0.00 37
20260504001306 23 197 6.4 12.9 0.00 0.00 0.00 37
20260504000803 23 248 1.6 12.9 0.00 0.00 0.00 36
20260504000300 23 214 11.3 12.9 0.00 0.00 0.00 35
20260503235758 24 196 6.4 16.1 0.00 0.00 0.00 35
20260503235255 24 216 9.7 9.7 0.00 0.00 0.00 35
20260503234753 24 208 8.0 11.3 0.00 0.00 0.00 34
20260503234250 24 203 4.8 12.9 0.00 0.00 0.00 35
20260503233747 25 200 8.0 12.9 0.00 0.00 0.00 35
20260503233243 25 217 4.8 9.7 0.00 0.00 0.00 33
20260503232740 25 201 11.3 19.3 0.00 0.00 0.00 33
20260503232237 25 217 8.0 12.9 0.00 0.00 0.00 33
20260503231735 25 195 8.0 14.5 0.00 0.00 0.00 33
20260503231232 25 221 6.4 22.5 0.00 0.00 0.00 34
20260503230728 25 192 8.0 25.7 0.00 0.00 0.00 33
20260503230226 25 180 12.9 17.7 0.00 0.00 0.00 33
20260503225723 25 202 12.9 24.1 0.00 0.00 0.00 33
20260503225223 25 215 9.7 20.9 0.00 0.00 0.00 33
20260503224720 25 195 9.7 14.5 0.00 0.00 0.00 33
20260503224218 25 196 4.8 20.9 0.00 0.00 0.00 34
20260503223715 25 204 12.9 14.5 0.00 0.00 0.00 32
20260503223213 25 199 16.1 22.5 0.00 0.00 0.00 33
20260503222709 26 198 9.7 16.1 0.00 0.00 0.00 33
20260503222207 25 272 6.4 24.1 0.00 0.00 0.00 34
20260503221705 26 218 16.1 27.4 0.00 0.00 0.00 32
20260503221202 26 187 14.5 22.5 0.00 0.00 0.00 33
20260503220659 26 219 12.9 27.4 0.00 0.00 0.00 31
20260503220155 26 218 16.1 22.5 0.00 0.00 0.00 32
20260503215652 26 198 11.3 16.1 0.00 0.00 0.00 33
20260503215149 26 251 4.8 20.9 0.00 0.00 0.00 35
20260503214648 26 206 12.9 19.3 0.00 0.00 0.00 33
20260503214143 26 256 3.2 24.1 0.00 0.00 0.00 34
20260503213637 25 193 14.5 24.1 0.00 0.00 0.00 32
20260503213133 25 194 14.5 24.1 0.00 0.00 0.00 33
20260503212631 25 34 6.4 14.5 0.00 0.00 0.00 36
20260503212128 25 234 9.7 27.4 0.00 0.00 0.00 35
20260503211626 25 208 12.9 29.0 0.00 0.00 0.00 34
20260503211121 25 285 8.0 20.9 0.00 0.00 0.00 35
20260503210618 25 217 6.4 24.1 0.00 0.00 0.00 36
20260503210115 25 186 8.0 22.5 0.00 0.00 0.00 36
20260503205611 25 212 11.3 22.5 0.00 0.00 0.00 34
20260503205107 25 196 6.4 20.9 0.00 0.00 0.00 37
20260503204604 25 201 19.3 20.9 0.00 0.00 0.00 34
20260503204102 25 207 4.8 19.3 0.00 0.00 0.00 36
20260503203558 25 205 9.7 27.4 0.00 0.00 0.00 36
20260503203055 25 197 8.0 24.1 0.00 0.00 0.00 38
20260503202553 25 200 12.9 25.7 0.00 0.00 0.00 39
20260503202051 25 215 14.5 20.9 0.00 0.00 0.00 37
20260503201549 25 211 11.3 20.9 0.00 0.00 0.00 39
20260503201046 24 272 6.4 16.1 0.00 0.00 0.00 38
20260503200542 24 184 9.7 25.7 0.00 0.00 0.00 38
20260503200039 24 199 17.7 19.3 0.00 0.00 0.00 38
20260503195536 23 209 19.3 25.7 0.00 0.00 0.00 38
20260503195033 23 220 4.8 22.5 0.00 0.00 0.00 41
20260503194530 24 216 6.4 17.7 0.00 0.00 0.00 37
20260503194029 23 189 22.5 27.4 0.00 0.00 0.00 37
20260503193527 23 212 8.0 17.7 0.00 0.00 0.00 39
20260503193022 23 202 14.5 16.1 0.00 0.00 0.00 38
20260503192518 23 189 19.3 25.7 0.00 0.00 0.00 37
20260503192014 23 211 9.7 20.9 0.00 0.00 0.00 38
20260503191511 23 225 12.9 25.7 0.00 0.00 0.00 38
20260503191008 23 213 19.3 24.1 0.00 0.00 0.00 38
20260503190505 23 203 11.3 17.7 0.00 0.00 0.00 37
20260503190002 22 258 8.0 14.5 0.00 0.00 0.00 38
20260503185458 23 187 16.1 24.1 0.00 0.00 0.00 37
20260503184957 23 182 14.5 19.3 0.00 0.00 0.00 38
20260503184454 22 216 6.4 14.5 0.00 0.00 0.00 39
20260503183950 22 207 14.5 24.1 0.00 0.00 0.00 36
20260503183447 22 217 14.5 19.3 0.00 0.00 0.00 37
20260503182944 22 207 12.9 22.5 0.00 0.00 0.00 39
20260503182443 22 232 4.8 19.3 0.00 0.00 0.00 39
20260503181940 21 175 17.7 19.3 0.00 0.00 0.00 38
20260503181437 21 170 14.5 29.0 0.00 0.00 0.00 38
20260503180933 21 220 16.1 29.0 0.00 0.00 0.00 36
20260503180431 21 199 17.7 24.1 0.00 0.00 0.00 38
20260503175928 21 186 12.9 27.4 0.00 0.00 0.00 38
20260503175426 21 203 14.5 24.1 0.00 0.00 0.00 37
20260503174921 21 203 8.0 25.7 0.00 0.00 0.00 38
20260503174420 21 180 8.0 20.9 0.00 0.00 0.00 38
20260503173920 21 184 9.7 20.9 0.00 0.00 0.00 42
20260503173416 20 207 12.9 22.5 0.00 0.00 0.00 40
20260503172913 20 203 14.5 24.1 0.00 0.00 0.00 40
20260503172411 20 207 9.7 22.5 0.00 0.00 0.00 41
20260503171907 20 269 4.8 19.3 0.00 0.00 0.00 42
20260503171403 20 174 17.7 20.9 0.00 0.00 0.00 38
20260503170901 20 254 8.0 22.5 0.00 0.00 0.00 39
20260503170357 20 263 6.4 25.7 0.00 0.00 0.00 42
20260503150749 16 202 6.4 16.1 0.00 0.00 0.00 47
20260503150245 15 218 9.7 20.9 0.00 0.00 0.00 48
20260503140210 12 198 9.7 20.9 0.00 0.00 0.00 55
20260503131139 10 250 4.8 17.7 0.00 0.00 0.00 60
20260503130637 10 198 3.2 19.3 0.00 0.00 0.00 60
20260503130135 10 211 6.4 17.7 0.00 0.00 0.00 58
20260503110527 8 151 4.8 9.7 0.00 0.00 0.00 59
20260503090414 8 143 3.2 8.0 0.00 0.00 0.00 58
20260503081340 7 219 1.6 3.2 0.00 0.00 0.00 67
20260503080837 6 183 3.2 3.2 0.00 0.00 0.00 69
20260503080334 6 141 0.0 1.6 0.00 0.00 0.00 73
20260503072810 6 125 1.6 1.6 0.00 0.00 0.00 74